TimeGMT,TemperatureF,Dew PointF,Humidity,Sea Level PressureIn,VisibilityMPH,Wind Direction,Wind SpeedMPH,Gust SpeedMPH,PrecipitationIn,Events,Conditions,WindDirDegrees,DateUTC
2:50 AM,55,54,96,29.55,6,South,29.9,,,Rain,Rain,180,2012-11-20 02:50:00
5:50 AM,56,55,94,29.48,3,SSW,39.1,,,Rain,Rain,200,2012-11-20 05:50:00
7:50 AM,55.4,53.6,94,29.53,4.3,SW,27.6,-,N/A,,Mostly Cloudy,220,2012-11-20 07:50:00
8:20 AM,55.4,53.6,94,29.56,6.2,SW,27.6,-,N/A,,Mostly Cloudy,220,2012-11-20 08:20:00
8:50 AM,54,52,90,29.58,7,SW,24.2,,,,Partly Cloudy,220,2012-11-20 08:50:00
8:50 AM,53.6,51.8,94,29.56,6.2,SW,24.2,-,N/A,,Mostly Cloudy,220,2012-11-20 08:50:00
9:20 AM,53.6,51.8,94,29.59,6.2,SW,19.6,-,N/A,,Mostly Cloudy,230,2012-11-20 09:20:00
9:50 AM,53.6,51.8,94,29.59,6.2,SW,18.4,-,N/A,,Mostly Cloudy,230,2012-11-20 09:50:00
10:20 AM,55.4,51.8,88,29.59,-9999.0,SW,17.3,-,N/A,,Clear,220,2012-11-20 10:20:00
10:50 AM,55.4,51.8,88,29.62,-9999.0,SW,16.1,-,N/A,,Clear,220,2012-11-20 10:50:00
11:20 AM,55.4,51.8,88,29.62,-9999.0,SW,19.6,-,N/A,,Clear,230,2012-11-20 11:20:00
11:50 AM,55,52,87,29.63,8,SW,17.3,,,,Overcast,230,2012-11-20 11:50:00
11:50 AM,55.4,51.8,88,29.62,-9999.0,SW,17.3,-,N/A,,Clear,230,2012-11-20 11:50:00
12:20 PM,55.4,51.8,88,29.65,-9999.0,SW,15.0,-,N/A,,Clear,220,2012-11-20 12:20:00
12:50 PM,55.4,51.8,88,29.65,6.2,SW,17.3,-,N/A,,Partly Cloudy,230,2012-11-20 12:50:00
1:20 PM,55.4,51.8,88,29.65,6.2,WSW,19.6,-,N/A,,Partly Cloudy,240,2012-11-20 13:20:00
1:50 PM,53.6,50.0,88,29.65,6.2,SW,18.4,-,N/A,,Partly Cloudy,230,2012-11-20 13:50:00
2:20 PM,53.6,50.0,88,29.68,6.2,WSW,15.0,-,N/A,,Partly Cloudy,240,2012-11-20 14:20:00
2:50 PM,54,49,77,29.69,8,WSW,13.8,,,,Mostly Cloudy,250,2012-11-20 14:50:00
2:50 PM,53.6,48.2,82,29.68,6.2,WSW,13.8,-,N/A,,Partly Cloudy,240,2012-11-20 14:50:00
3:20 PM,53.6,48.2,82,29.68,6.2,WSW,12.7,-,N/A,,Partly Cloudy,240,2012-11-20 15:20:00
3:50 PM,53.6,48.2,82,29.68,6.2,SW,11.5,-,N/A,,Partly Cloudy,230,2012-11-20 15:50:00
4:20 PM,53.6,46.4,77,29.71,6.2,SW,11.5,-,N/A,,Partly Cloudy,230,2012-11-20 16:20:00
4:50 PM,53.6,48.2,82,29.68,6.2,SW,11.5,-,N/A,,Partly Cloudy,230,2012-11-20 16:50:00
5:20 PM,53.6,48.2,82,29.68,6.2,SSW,9.2,-,N/A,,Partly Cloudy,210,2012-11-20 17:20:00
5:50 PM,53,47,75,29.70,6,SSW,8.1,,,,Overcast,210,2012-11-20 17:50:00
8:50 PM,50,41,62,29.71,5,SSE,8.1,,,Rain,Light Rain Showers,160,2012-11-20 20:50:00
11:50 PM,47,44,86,29.70,6,NE,2.3,,,Rain,Rain,50,2012-11-20 23:50:00